Weather in Columbus

United States     39°57′45″N   82°59′47″W
temp.,
°C
wind,
m/s
gust,
m/s
humid.,
%
clouds,
%
prec.,
mm/h
press.,
hPa
HPBL,
m
18 september, sat
sat1823:00+24wnw12740 0.2 101940
02:00+22nw11780 0.3 101932
05:00+20wsw00892 0.4 101911
08:00+20nne11883 0.4 102027
11:00+27ne12579 0.0 1021486
14:00+31se1135100 0.0 10192023
17:00+31nne223659 0.0 10182036
20:00+27nne365897 0.0 1019351
19 september, sun
sun1923:00+22ne266412 0.1 1020210
02:00+20ene26620 0.1 1021214
05:00+19ne24674 0.0 1021172
08:00+18ene24715 0.0 1022136
11:00+25e23530 0.0 1022524
14:00+29e224495 0.0 10201319
17:00+29e3242100 0.0 10181729
20:00+25ene2559100 0.0 1018132
20 september, mon
mon2023:00+23e3757100 0.0 1019193
02:00+21ese396592 0.0 1020305
05:00+20ese2765100 0.0 1019213
08:00+20se2669100 0.0 1019212
11:00+24ssw3558100 0.0 1020587
14:00+22s2481100 0.6 1020266
17:00+21s31188100 0.6 1019802
20:00+20ssw31088100 0.7 1020703
21 september, tue
tue2123:00+20s31390100 0.0 1020802
02:00+19sse41390100 0.4 1020731
05:00+20sse41390100 0.0 1019821
08:00+20sse5128884 0.0 1019681
11:00+23s696999 0.0 1020802
14:00+25s586097 0.0 10181284
17:00+22ssw4988100 1.3 1016640
20:00+20s3119477 3.6 1015587
22 september, wed
wed2223:00+19s41197100 5.0 1014603
02:00+19w4796100 13.6 1013593
05:00+15nw51093100 7.7 1015762
08:00+13nnw51191100 9.3 1016688
11:00+14nnw5107394 0.0 1018851
14:00+19nw57450 0.0 10181640
17:00+20nw57401 0.0 10171982
20:00+16nw59525 0.0 1019890